Location: Fort Worth, Tx
(32.7431°N, 97.3695°W)
Time: 07:46:15
(UTC-04:00)

Explorer 11/Cluster Stage 4 - Pass Details

Date: 29 January 2023
Orbit: 466 x 1241 km, 28.8° (Epoch: 02 April)

Event Time Altitude Azimuth Distance (km) Brightness Sun altitude
Exits shadow 05:54:58 - 193° (SSW) 3,402 9.7 -31.9°
Reaches altitude 10° 05:56:08 10° 186° (S) 3,172 9.6 -31.7°
Maximum altitude 06:00:58 17° 149° (SSE) 2,687 9.6 -30.6°
Drops below altitude 10° 06:05:48 10° 112° (ESE) 3,171 10.5 -29.6°
Sets 06:09:47 0° 94° (E) 4,071 11.5 -28.8°
